When you browse on this site, cookies collect data to enhance your experience and personalize the content and advertising you see.
Visit our Privacy Policy to learn more. By continuing to use the site, you agree to this use of cookies and data.
  • In Czech Republic
  • List of Countries
  • For 7 days
  • Water Temperature
  • Weather Map
  • Weather Widgets
  • user-avatar
    Login

    Hourly Weather Le Plessis-Robinson

    Today, 5 June, Friday

    Time Temperature Precipitation Wind Pressure Humidity
    00:00 +10°C° 0 mm 3 mps 741 mmHg 81%
    01:00 +10°C° 0 mm 3 mps 741 mmHg 81%
    02:00 +10°C° 0 mm 3 mps 740 mmHg 81%
    03:00 +10°C° 0 mm 4 mps 740 mmHg 81%
    04:00 +10°C° 0.1 mm 4 mps 740 mmHg 82%
    05:00 +9°C° 0.1 mm 5 mps 739 mmHg 84%
    06:00 +9°C° 0 mm 5 mps 739 mmHg 86%
    07:00 +10°C° 0.2 mm 6 mps 739 mmHg 86%
    08:00 +11°C° 0.2 mm 6 mps 739 mmHg 86%
    09:00 +11°C° 0.2 mm 6 mps 739 mmHg 86%
    10:00 +14°C° 0.2 mm 7 mps 739 mmHg 78%
    11:00 +15°C° 0.2 mm 7 mps 739 mmHg 70%
    12:00 +17°C° 0.2 mm 8 mps 739 mmHg 61%
    13:00 +16°C° 0.1 mm 8 mps 739 mmHg 62%
    14:00 +16°C° 0.1 mm 7 mps 739 mmHg 63%
    15:00 +15°C° 0.1 mm 7 mps 739 mmHg 63%
    16:00 +15°C° 0.1 mm 6 mps 740 mmHg 64%
    17:00 +14°C° 0.1 mm 6 mps 740 mmHg 64%
    18:00 +14°C° 0.1 mm 5 mps 740 mmHg 64%
    19:00 +13°C° 0 mm 5 mps 741 mmHg 67%
    20:00 +13°C° 0 mm 4 mps 741 mmHg 71%
    21:00 +12°C° 0 mm 4 mps 741 mmHg 74%
    22:00 +12°C° 0.2 mm 4 mps 741 mmHg 77%
    23:00 +12°C° 0.2 mm 4 mps 741 mmHg 80%

    Tomorrow, 6 June, Saturday

    Time Temperature Precipitation Wind Pressure Humidity
    00:00 +12°C° 0.2 mm 5 mps 741 mmHg 84%
    01:00 +12°C° 0.2 mm 4 mps 741 mmHg 83%
    02:00 +12°C° 0.2 mm 4 mps 741 mmHg 83%
    03:00 +11°C° 0.2 mm 4 mps 741 mmHg 82%
    04:00 +11°C° 0.2 mm 4 mps 741 mmHg 80%
    05:00 +11°C° 0.2 mm 4 mps 741 mmHg 78%
    06:00 +11°C° 0.2 mm 4 mps 741 mmHg 76%
    07:00 +12°C° 0 mm 5 mps 742 mmHg 68%
    08:00 +13°C° 0 mm 5 mps 742 mmHg 61%
    09:00 +14°C° 0 mm 6 mps 742 mmHg 53%
    10:00 +15°C° 0 mm 6 mps 743 mmHg 52%
    11:00 +15°C° 0 mm 6 mps 743 mmHg 50%
    12:00 +16°C° 0 mm 6 mps 743 mmHg 48%
    13:00 +15°C° 0 mm 6 mps 743 mmHg 49%
    14:00 +15°C° 0 mm 6 mps 743 mmHg 50%
    15:00 +15°C° 0 mm 6 mps 743 mmHg 50%
    16:00 +15°C° 0 mm 5 mps 743 mmHg 52%
    17:00 +14°C° 0 mm 5 mps 743 mmHg 54%
    18:00 +14°C° 0 mm 5 mps 743 mmHg 56%
    19:00 +12°C° 0 mm 5 mps 743 mmHg 58%
    20:00 +11°C° 0 mm 4 mps 744 mmHg 61%
    21:00 +10°C° 0 mm 4 mps 744 mmHg 64%
    22:00 +10°C° 0 mm 4 mps 744 mmHg 68%
    23:00 +10°C° 0 mm 4 mps 744 mmHg 71%

    Day after tomorrow, 7 June, Sunday

    Time Temperature Precipitation Wind Pressure Humidity
    00:00 +8°C° 0 mm 5 mps 744 mmHg 74%
    01:00 +8°C° 0 mm 4 mps 744 mmHg 77%
    02:00 +8°C° 0 mm 4 mps 744 mmHg 79%
    03:00 +8°C° 0 mm 4 mps 744 mmHg 82%
    04:00 +8°C° 0 mm 4 mps 745 mmHg 81%
    05:00 +10°C° 0 mm 4 mps 745 mmHg 81%
    06:00 +10°C° 0 mm 3 mps 745 mmHg 80%
    07:00 +12°C° 0 mm 3 mps 746 mmHg 74%
    08:00 +14°C° 0 mm 3 mps 746 mmHg 68%
    09:00 +16°C° 0 mm 3 mps 746 mmHg 62%
    10:00 +17°C° 0.2 mm 3 mps 746 mmHg 61%
    11:00 +17°C° 0.2 mm 3 mps 746 mmHg 60%
    12:00 +18°C° 0.2 mm 3 mps 746 mmHg 59%
    13:00 +18°C° 0.3 mm 3 mps 746 mmHg 58%
    14:00 +19°C° 0.3 mm 3 mps 746 mmHg 56%
    15:00 +19°C° 0.3 mm 2 mps 746 mmHg 55%
    16:00 +19°C° 0.2 mm 2 mps 746 mmHg 57%
    17:00 +18°C° 0.2 mm 2 mps 746 mmHg 60%
    18:00 +18°C° 0.2 mm 2 mps 746 mmHg 62%
    19:00 +18°C° 0.1 mm 1 mps 747 mmHg 67%
    20:00 +15°C° 0.1 mm 1 mps 747 mmHg 71%
    21:00 +14°C° 0.1 mm 1 mps 748 mmHg 76%
    22:00 +14°C° 0 mm 1 mps 748 mmHg 77%
    23:00 +13°C° 0 mm 1 mps 748 mmHg 78%

    8 June, Monday

    Time Temperature Precipitation Wind Pressure Humidity
    00:00 +13°C° 0 mm 1 mps 748 mmHg 79%
    01:00 +12°C° 0 mm 1 mps 748 mmHg 81%
    02:00 +12°C° 0 mm 1 mps 748 mmHg 82%
    03:00 +12°C° 0 mm 1 mps 748 mmHg 84%
    04:00 +12°C° 0 mm 1 mps 748 mmHg 82%
    05:00 +13°C° 0 mm 1 mps 748 mmHg 80%
    06:00 +13°C° 0 mm 1 mps 749 mmHg 79%
    07:00 +15°C° 0.1 mm 1 mps 749 mmHg 73%
    08:00 +18°C° 0.1 mm 1 mps 749 mmHg 67%
    09:00 +19°C° 0.1 mm 1 mps 750 mmHg 61%
    10:00 +19°C° 0.3 mm 2 mps 749 mmHg 57%
    11:00 +20°C° 0.3 mm 2 mps 749 mmHg 53%
    12:00 +21°C° 0.3 mm 2 mps 749 mmHg 49%
    13:00 +21°C° 0.3 mm 2 mps 749 mmHg 51%
    14:00 +21°C° 0.3 mm 3 mps 749 mmHg 52%
    15:00 +21°C° 0.3 mm 3 mps 749 mmHg 54%
    16:00 +20°C° 0.6 mm 3 mps 749 mmHg 58%
    17:00 +20°C° 0.6 mm 3 mps 749 mmHg 63%
    18:00 +19°C° 0.6 mm 3 mps 749 mmHg 67%
    19:00 +18°C° 0.2 mm 3 mps 750 mmHg 70%
    20:00 +17°C° 0.2 mm 3 mps 750 mmHg 73%
    21:00 +14°C° 0.2 mm 3 mps 750 mmHg 76%
    22:00 +14°C° 0 mm 3 mps 750 mmHg 79%
    23:00 +13°C° 0 mm 3 mps 750 mmHg 82%

    9 June, Tuesday

    Time Temperature Precipitation Wind Pressure Humidity
    00:00 +12°C° 0 mm 3 mps 750 mmHg 84%
    01:00 +12°C° 0 mm 3 mps 750 mmHg 85%
    02:00 +11°C° 0 mm 3 mps 750 mmHg 86%
    03:00 +11°C° 0 mm 3 mps 750 mmHg 87%
    04:00 +11°C° 0 mm 3 mps 751 mmHg 86%
    05:00 +12°C° 0 mm 3 mps 751 mmHg 85%
    06:00 +12°C° 0 mm 3 mps 751 mmHg 83%
    07:00 +14°C° 0 mm 3 mps 751 mmHg 77%
    08:00 +16°C° 0 mm 3 mps 752 mmHg 71%
    09:00 +18°C° 0 mm 4 mps 752 mmHg 64%
    10:00 +19°C° 0.1 mm 4 mps 752 mmHg 60%
    11:00 +20°C° 0.1 mm 3 mps 752 mmHg 57%
    12:00 +21°C° 0.1 mm 3 mps 752 mmHg 53%
    13:00 +21°C° 0.2 mm 4 mps 752 mmHg 54%
    14:00 +21°C° 0.2 mm 4 mps 752 mmHg 55%
    15:00 +21°C° 0.2 mm 4 mps 751 mmHg 56%
    16:00 +21°C° 0.2 mm 4 mps 752 mmHg 60%
    17:00 +20°C° 0.2 mm 4 mps 752 mmHg 64%
    18:00 +19°C° 0.2 mm 5 mps 752 mmHg 68%
    19:00 +17°C° 0 mm 5 mps 753 mmHg 73%
    20:00 +17°C° 0 mm 4 mps 753 mmHg 77%
    21:00 +14°C° 0 mm 4 mps 754 mmHg 82%
    22:00 +13°C° 0 mm 4 mps 754 mmHg 83%
    23:00 +12°C° 0 mm 4 mps 754 mmHg 84%

    10 June, Wednesday

    Time Temperature Precipitation Wind Pressure Humidity
    00:00 +11°C° 0 mm 4 mps 754 mmHg 85%
    01:00 +11°C° 0 mm 4 mps 754 mmHg 86%
    02:00 +10°C° 0 mm 4 mps 754 mmHg 87%
    03:00 +10°C° 0 mm 4 mps 754 mmHg 88%
    04:00 +10°C° 0 mm 4 mps 754 mmHg 86%
    05:00 +11°C° 0 mm 4 mps 754 mmHg 85%
    06:00 +11°C° 0 mm 4 mps 754 mmHg 84%
    07:00 +13°C° 0 mm 4 mps 754 mmHg 79%
    08:00 +14°C° 0 mm 4 mps 754 mmHg 75%
    09:00 +17°C° 0 mm 4 mps 755 mmHg 70%
    10:00 +17°C° 0 mm 5 mps 754 mmHg 65%
    11:00 +20°C° 0 mm 5 mps 754 mmHg 59%
    12:00 +22°C° 0 mm 5 mps 754 mmHg 54%
    13:00 +22°C° 0.1 mm 5 mps 754 mmHg 54%
    14:00 +22°C° 0.1 mm 6 mps 754 mmHg 53%
    15:00 +23°C° 0.1 mm 6 mps 754 mmHg 53%
    16:00 +22°C° 0.1 mm 6 mps 754 mmHg 56%
    17:00 +21°C° 0.1 mm 5 mps 754 mmHg 59%
    18:00 +20°C° 0.1 mm 5 mps 754 mmHg 63%
    19:00 +19°C° 0 mm 5 mps 755 mmHg 65%
    20:00 +17°C° 0 mm 5 mps 755 mmHg 67%
    21:00 +15°C° 0 mm 5 mps 756 mmHg 70%
    22:00 +14°C° 0 mm 5 mps 756 mmHg 71%
    23:00 +13°C° 0 mm 4 mps 755 mmHg 73%
    Show more